Location: Cairns City
(16.9233°S, 145.7733°E)
Time: 15:37:34
(UTC+10:00)

Hubble Space Telescope - Visible Passes

Search period start: 19 October 2017 00:00
Search period end: 29 October 2017 00:00
Orbit: 537 x 541 km, 28.5° (Epoch: 18 October)

Date Brightness Start Highest point End Pass type
(mag) Time Alt. Az. Time Alt. Az. Time Alt. Az.
19 Oct 3.0 05:03:11 10° NNW 05:06:06 19° NNE 05:09:02 10° ENE visible
20 Oct 2.5 04:52:26 10° NNW 04:55:53 25° NNE 04:59:21 10° E visible
21 Oct 2.0 04:43:05 17° NNW 04:45:41 34° NNE 04:49:30 10° E visible
22 Oct 1.4 04:33:41 28° NNW 04:35:29 48° NNE 04:39:31 10° ESE visible
23 Oct 0.9 04:24:12 45° NW 04:25:18 67° NNE 04:29:26 10° ESE visible
24 Oct 0.6 04:14:40 70° WNW 04:15:07 89° SSW 04:19:18 10° ESE visible
25 Oct 0.9 04:05:05 67° S 04:05:05 67° S 04:09:07 10° ESE visible
26 Oct 1.5 03:55:26 46° S 03:55:26 46° S 03:58:53 10° SE visible
27 Oct 2.2 03:45:45 33° SSE 03:45:45 33° SSE 03:48:37 10° SE visible
28 Oct 2.7 03:36:02 25° SSE 03:36:02 25° SSE 03:38:21 10° SE visible
28 Oct 3.0 05:13:36 10° SW 05:16:23 17° S 05:19:11 10° SE visible
